TimeCDT,TemperatureF,Dew PointF,Humidity,Sea Level PressureIn,VisibilityMPH,Wind Direction,Wind SpeedMPH,Gust SpeedMPH,PrecipitationIn,Events,Conditions,WindDirDegrees,DateUTC
12:15 AM,55.8,54.5,96,29.80,5.0,NNE,12.7,17.3,N/A,,Overcast,20,2013-05-23 05:15:00
12:35 AM,55.0,53.6,95,29.81,7.0,NNE,17.3,23.0,N/A,,Overcast,30,2013-05-23 05:35:00
12:55 AM,53.8,52.2,94,29.81,5.0,NNE,17.3,23.0,0.01,,Overcast,30,2013-05-23 05:55:00
1:15 AM,54.0,52.7,95,29.82,7.0,NNE,11.5,-,N/A,,Overcast,30,2013-05-23 06:15:00
1:35 AM,53.8,52.3,95,29.82,5.0,NNE,16.1,19.6,N/A,,Overcast,30,2013-05-23 06:35:00
1:55 AM,53.6,52.0,94,29.83,7.0,NNE,15.0,19.6,N/A,,Overcast,30,2013-05-23 06:55:00
2:15 AM,53.6,52.0,94,29.83,5.0,NNE,13.8,20.7,0.01,,Overcast,20,2013-05-23 07:15:00
2:35 AM,53.6,52.0,94,29.84,5.0,North,13.8,17.3,0.01,,Overcast,10,2013-05-23 07:35:00
2:55 AM,53.2,52.0,95,29.84,7.0,NNE,12.7,-,0.02,,Overcast,20,2013-05-23 07:55:00
3:15 AM,53.1,52.0,96,29.85,5.0,NNE,12.7,18.4,0.01,,Overcast,20,2013-05-23 08:15:00
3:35 AM,53.2,52.2,96,29.85,10.0,NNE,12.7,-,0.01,,Overcast,30,2013-05-23 08:35:00
3:55 AM,53.2,52.2,96,29.86,10.0,NNE,11.5,-,0.01,,Overcast,30,2013-05-23 08:55:00
4:15 AM,53.2,52.2,96,29.87,10.0,NNE,13.8,19.6,N/A,,Overcast,30,2013-05-23 09:15:00
4:35 AM,52.3,51.1,95,29.88,10.0,NNE,16.1,19.6,N/A,,Overcast,20,2013-05-23 09:35:00
4:55 AM,52.0,50.9,96,29.89,10.0,NNE,17.3,23.0,N/A,,Overcast,30,2013-05-23 09:55:00
5:15 AM,52.0,50.9,96,29.91,10.0,NNE,13.8,21.9,N/A,,Overcast,30,2013-05-23 10:15:00
5:35 AM,52.0,50.4,94,29.92,10.0,NNE,13.8,23.0,N/A,,Overcast,20,2013-05-23 10:35:00
5:55 AM,51.8,49.8,93,29.93,10.0,NNE,18.4,26.5,N/A,,Overcast,30,2013-05-23 10:55:00
6:15 AM,51.8,49.1,90,29.95,7.0,NNE,15.0,25.3,0.01,,Overcast,30,2013-05-23 11:15:00
6:35 AM,50.9,49.1,94,29.97,5.0,NNE,17.3,24.2,0.01,,Overcast,20,2013-05-23 11:35:00
6:55 AM,50.9,48.0,90,29.98,10.0,NNE,17.3,21.9,0.01,,Overcast,20,2013-05-23 11:55:00
7:15 AM,50.9,48.2,90,29.99,7.0,NNE,13.8,-,N/A,,Overcast,20,2013-05-23 12:15:00
7:35 AM,50.5,48.4,92,30.00,10.0,NNE,15.0,26.5,N/A,,Overcast,20,2013-05-23 12:35:00
7:55 AM,50.5,47.7,90,30.01,10.0,NNE,13.8,23.0,N/A,,Overcast,20,2013-05-23 12:55:00
8:15 AM,51.3,48.4,90,30.02,10.0,North,13.8,-,N/A,,Overcast,10,2013-05-23 13:15:00
8:35 AM,50.9,48.4,91,30.04,10.0,North,13.8,18.4,N/A,,Overcast,360,2013-05-23 13:35:00
8:55 AM,50.9,47.5,88,30.05,10.0,North,12.7,19.6,N/A,,Overcast,360,2013-05-23 13:55:00
9:15 AM,51.3,47.5,87,30.06,10.0,North,13.8,19.6,N/A,,Overcast,10,2013-05-23 14:15:00
9:35 AM,52.2,46.6,81,30.06,10.0,NNE,15.0,19.6,N/A,,Overcast,30,2013-05-23 14:35:00
9:55 AM,50.9,46.6,85,30.08,10.0,North,13.8,20.7,N/A,,Overcast,350,2013-05-23 14:55:00
10:15 AM,50.9,45.9,83,30.09,10.0,North,11.5,16.1,N/A,,Overcast,360,2013-05-23 15:15:00
10:35 AM,50.9,44.6,79,30.10,10.0,North,11.5,-,N/A,,Overcast,350,2013-05-23 15:35:00
10:55 AM,52.7,44.8,74,30.10,10.0,North,10.4,18.4,N/A,,Overcast,360,2013-05-23 15:55:00
11:15 AM,52.7,43.7,71,30.10,10.0,NNE,16.1,19.6,N/A,,Mostly Cloudy,20,2013-05-23 16:15:00
11:35 AM,54.5,45.5,72,30.11,10.0,North,11.5,16.1,N/A,,Mostly Cloudy,350,2013-05-23 16:35:00
11:55 AM,56.7,46.2,68,30.11,10.0,NNE,12.7,17.3,N/A,,Mostly Cloudy,20,2013-05-23 16:55:00
12:15 PM,56.8,45.7,66,30.12,10.0,North,15.0,19.6,N/A,,Mostly Cloudy,360,2013-05-23 17:15:00
12:35 PM,56.7,44.2,63,30.12,10.0,North,11.5,19.6,N/A,,Mostly Cloudy,10,2013-05-23 17:35:00
12:55 PM,58.5,44.6,60,30.13,10.0,NNE,18.4,-,N/A,,Scattered Clouds,20,2013-05-23 17:55:00
1:15 PM,59.0,46.4,63,30.13,10.0,NNE,12.7,18.4,N/A,,Scattered Clouds,20,2013-05-23 18:15:00
1:35 PM,58.8,44.6,59,30.13,10.0,North,13.8,17.3,N/A,,Mostly Cloudy,350,2013-05-23 18:35:00
1:55 PM,60.8,45.3,57,30.14,10.0,NNE,11.5,19.6,N/A,,Mostly Cloudy,20,2013-05-23 18:55:00
2:15 PM,61.2,44.4,54,30.14,10.0,NNE,13.8,18.4,N/A,,Mostly Cloudy,20,2013-05-23 19:15:00
2:35 PM,61.2,45.3,56,30.14,10.0,North,13.8,-,N/A,,Mostly Cloudy,360,2013-05-23 19:35:00
2:55 PM,60.8,43.3,53,30.15,10.0,North,13.8,18.4,N/A,,Overcast,350,2013-05-23 19:55:00
3:15 PM,63.1,45.1,52,30.15,10.0,North,12.7,19.6,N/A,,Mostly Cloudy,10,2013-05-23 20:15:00
3:35 PM,62.4,44.8,52,30.15,10.0,North,12.7,17.3,N/A,,Scattered Clouds,350,2013-05-23 20:35:00
3:55 PM,62.2,42.1,48,30.16,10.0,North,10.4,19.6,N/A,,Mostly Cloudy,360,2013-05-23 20:55:00
4:15 PM,63.3,40.6,43,30.16,10.0,NNE,10.4,17.3,N/A,,Mostly Cloudy,20,2013-05-23 21:15:00
4:35 PM,63.7,40.3,42,30.17,10.0,NNE,11.5,18.4,N/A,,Mostly Cloudy,30,2013-05-23 21:35:00
4:55 PM,61.9,40.3,45,30.18,10.0,NNE,9.2,-,N/A,,Scattered Clouds,30,2013-05-23 21:55:00
5:15 PM,62.6,38.3,41,30.18,10.0,NNE,11.5,-,N/A,,Scattered Clouds,20,2013-05-23 22:15:00
5:35 PM,63.3,35.8,36,30.19,10.0,NNE,8.1,17.3,N/A,,Scattered Clouds,20,2013-05-23 22:35:00
5:55 PM,62.8,31.6,31,30.20,10.0,NNE,12.7,-,N/A,,Clear,20,2013-05-23 22:55:00
6:15 PM,61.7,36.1,39,30.20,10.0,NE,6.9,-,N/A,,Clear,50,2013-05-23 23:15:00
6:35 PM,61.7,38.3,42,30.21,10.0,NE,6.9,-,N/A,,Clear,50,2013-05-23 23:35:00
6:55 PM,60.8,37.0,41,30.22,10.0,ENE,6.9,-,N/A,,Clear,60,2013-05-23 23:55:00
7:15 PM,59.7,34.3,39,30.22,10.0,ENE,6.9,-,N/A,,Clear,60,2013-05-24 00:15:00
7:35 PM,58.3,36.3,44,30.22,10.0,ENE,6.9,-,N/A,,Clear,70,2013-05-24 00:35:00
7:55 PM,56.1,37.2,49,30.23,10.0,ENE,5.8,-,N/A,,Clear,70,2013-05-24 00:55:00
8:15 PM,54.9,36.5,50,30.23,10.0,East,4.6,-,N/A,,Clear,80,2013-05-24 01:15:00
8:35 PM,53.4,38.1,56,30.24,10.0,Calm,Calm,-,N/A,,Clear,0,2013-05-24 01:35:00
8:55 PM,52.9,38.8,59,30.25,10.0,Calm,Calm,-,N/A,,Clear,0,2013-05-24 01:55:00
9:15 PM,51.3,37.8,60,30.25,10.0,East,3.5,-,N/A,,Clear,80,2013-05-24 02:15:00
9:35 PM,51.8,37.4,58,30.26,10.0,East,3.5,-,N/A,,Clear,80,2013-05-24 02:35:00
9:55 PM,50.0,37.2,62,30.27,10.0,ENE,3.5,-,N/A,,Clear,70,2013-05-24 02:55:00
10:15 PM,46.8,39.0,74,30.28,10.0,Calm,Calm,-,N/A,,Clear,0,2013-05-24 03:15:00
10:35 PM,44.1,38.7,81,30.28,10.0,Calm,Calm,-,N/A,,Clear,0,2013-05-24 03:35:00
10:55 PM,45.3,41.5,87,30.28,10.0,Calm,Calm,-,N/A,,Clear,0,2013-05-24 03:55:00
11:15 PM,45.1,42.8,91,30.28,10.0,Calm,Calm,-,N/A,,Clear,0,2013-05-24 04:15:00
11:35 PM,43.3,40.8,91,30.29,10.0,West,4.6,-,N/A,,Clear,270,2013-05-24 04:35:00
11:55 PM,42.4,40.8,94,30.31,10.0,Calm,Calm,-,N/A,,Clear,0,2013-05-24 04:55:00